FW6471 Weather Reports


Display with metric or nautical units.
time (UTC)temp
F
wind
direction
speed
MPH
gust
MPH
rain 1hr
in
rain 24hr
in
rain mn
in
humidity
%
barometer
mb
20260903003106 79 6 0.0 0.0 0.03 0.08 0.07 92 1015.6
20260903002606 79 6 0.0 0.0 0.02 0.07 0.06 92 1015.7
20260903002105 79 6 0.0 0.0 0.02 0.07 0.06 92 1015.7
20260903001605 79 6 0.0 0.0 0.02 0.07 0.06 92 1015.7
20260903001106 79 6 0.0 0.0 0.02 0.07 0.06 92 1015.6
20260903000605 79 6 0.0 0.0 0.02 0.07 0.06 92 1015.6
20260903000109 79 6 0.0 0.0 0.01 0.06 0.05 92 1015.6
20260902235606 79 6 0.0 0.0 0.01 0.06 0.05 91 1015.6
20260902234605 79 6 0.0 0.0 0.01 0.06 0.05 91 1015.5
20260902234105 79 6 0.0 0.0 0.00 0.05 0.04 91 1015.5
20260902233605 80 6 0.0 0.0 0.00 0.05 0.04 91 1015.4
20260902233105 80 6 0.0 0.0 0.00 0.05 0.04 91 1015.4
20260902232106 80 6 0.0 0.0 0.00 0.05 0.04 91 1015.5
20260902231105 80 23 0.0 0.0 0.00 0.05 0.04 91 1015.3
20260902230605 80 31 0.0 0.0 0.00 0.05 0.04 91 1015.4
20260902225605 80 31 0.0 0.0 0.00 0.05 0.04 90 1015.4
20260902225106 80 31 0.0 0.0 0.00 0.05 0.04 90 1015.4
20260902224605 80 31 0.0 0.0 0.00 0.05 0.04 90 1015.7
20260902224105 80 31 0.0 0.0 0.00 0.05 0.04 90 1015.8
20260902223606 80 31 0.0 0.0 0.00 0.05 0.04 90 1015.5
20260902223105 81 18 0.0 0.0 0.00 0.05 0.04 90 1015.3
20260902222605 81 18 0.0 0.0 0.00 0.05 0.04 90 1015.2
20260902221606 81 339 0.0 1.0 0.00 0.05 0.04 90 1015.0
20260902221105 82 335 0.0 0.0 0.00 0.05 0.04 90 1015.2
20260902215605 82 354 0.0 1.0 0.00 0.05 0.04 89 1015.1
20260902215105 83 353 0.0 0.0 0.00 0.05 0.04 89 1014.7
20260902214605 83 41 0.0 1.0 0.00 0.05 0.04 89 1014.8
20260902213605 83 105 0.0 1.0 0.00 0.05 0.04 89 1014.5
20260902213105 83 77 0.0 2.0 0.00 0.05 0.04 89 1014.5
20260902212605 83 107 0.0 1.0 0.00 0.05 0.04 88 1014.6
20260902212105 84 67 0.0 0.0 0.00 0.05 0.04 89 1014.8
20260902210605 85 47 0.0 1.0 0.00 0.05 0.04 90 1014.6
20260902210109 85 147 0.0 1.0 0.01 0.05 0.04 90 1014.8
20260902205605 84 142 0.0 0.0 0.02 0.05 0.04 90 1014.6
20260902204605 84 142 0.0 0.0 0.03 0.05 0.04 90 1014.5
20260902204105 84 142 0.0 0.0 0.03 0.05 0.04 90 1014.4
20260902203605 84 142 0.0 2.0 0.03 0.05 0.04 90 1014.6
20260902203105 84 156 0.0 0.0 0.03 0.05 0.04 91 1014.8
20260902202605 84 156 0.0 0.0 0.03 0.05 0.04 90 1014.7
20260902201606 84 156 0.0 0.0 0.03 0.05 0.04 89 1014.5
20260902201105 84 156 0.0 0.0 0.03 0.05 0.04 89 1014.6
20260902200109 84 19 0.0 1.0 0.02 0.04 0.03 86 1014.8
20260902195605 86 145 0.0 3.0 0.01 0.03 0.02 84 1014.9
20260902195105 88 85 0.0 0.0 0.00 0.02 0.01 81 1014.9
20260902194605 89 353 0.0 0.0 0.00 0.02 0.01 78 1014.8
20260902193605 89 324 0.0 3.0 0.00 0.02 0.01 76 1014.9
20260902192605 90 340 2.0 6.0 0.00 0.02 0.01 74 1015.1
20260902192105 90 334 1.0 3.0 0.00 0.02 0.01 74 1015.1
20260902191605 90 323 0.0 3.0 0.00 0.02 0.01 74 1015.1
20260902191105 91 11 1.0 5.0 0.00 0.02 0.01 73 1015.2
20260902190605 91 318 0.0 3.0 0.00 0.02 0.01 71 1015.2
20260902190109 90 320 0.0 0.0 0.00 0.02 0.01 76 1015.3
20260902185605 90 57 0.0 0.0 0.00 0.02 0.01 75 1015.4
20260902185105 90 71 0.0 1.0 0.00 0.02 0.01 74 1015.5
20260902184605 90 294 0.0 0.0 0.00 0.02 0.01 74 1015.6
20260902184105 90 290 0.0 3.0 0.00 0.02 0.01 73 1015.6
20260902183605 90 349 0.0 5.0 0.00 0.02 0.01 74 1015.7
20260902183105 91 330 2.0 6.0 0.00 0.02 0.01 74 1015.8
20260902182105 91 326 0.0 5.0 0.00 0.02 0.01 71 1016.0
20260902181105 90 308 0.0 3.0 0.00 0.02 0.01 72 1016.2
20260902175605 89 61 0.0 0.0 0.00 0.02 0.01 77 1016.3
20260902175105 88 27 0.0 5.0 0.00 0.02 0.01 78 1016.3
20260902174105 87 312 0.0 3.0 0.00 0.02 0.01 76 1016.4
20260902173605 88 5 0.0 1.0 0.00 0.02 0.01 78 1016.5
20260902173105 88 310 0.0 0.0 0.00 0.02 0.01 78 1016.5
20260902172605 89 330 0.0 1.0 0.00 0.02 0.01 77 1016.6
20260902172105 89 5 0.0 1.0 0.00 0.02 0.01 78 1016.6
20260902171605 88 156 1.0 5.0 0.00 0.02 0.01 77 1016.7
20260902171104 88 131 0.0 0.0 0.00 0.02 0.01 81 1016.8
20260902170605 86 179 0.0 1.0 0.00 0.02 0.01 81 1016.8
20260902170108 86 109 0.0 0.0 0.00 0.02 0.01 84 1017.0
20260902165605 86 80 0.0 0.0 0.00 0.02 0.01 83 1017.0
20260902165104 86 22 0.0 0.0 0.00 0.02 0.01 82 1017.1
20260902164605 86 22 0.0 0.0 0.00 0.02 0.01 82 1017.2
20260902164105 86 22 0.0 0.0 0.00 0.02 0.01 81 1017.2
20260902163606 87 21 0.0 0.0 0.00 0.02 0.01 79 1017.2
20260902163104 87 21 0.0 0.0 0.00 0.02 0.01 81 1017.2
20260902162605 87 21 0.0 0.0 0.00 0.02 0.01 80 1017.3
20260902162105 87 327 0.0 2.0 0.00 0.02 0.01 77 1017.3
20260902161605 87 317 0.0 1.0 0.00 0.02 0.01 78 1017.3
20260902161105 87 48 0.0 2.0 0.00 0.02 0.01 80 1017.5
20260902160605 87 331 0.0 6.0 0.00 0.02 0.01 80 1017.6
20260902160110 86 316 0.0 7.0 0.00 0.02 0.01 85 1017.6
20260902155604 86 320 0.0 2.0 0.00 0.02 0.01 82 1017.7
20260902155105 86 297 0.0 5.0 0.00 0.02 0.01 83 1017.7
20260902154605 86 3 0.0 5.0 0.00 0.02 0.01 82 1017.8
20260902154105 86 10 1.0 3.0 0.00 0.02 0.01 82 1017.9
20260902153604 86 333 0.0 0.0 0.00 0.02 0.01 85 1017.9
20260902153105 85 308 0.0 2.0 0.00 0.02 0.01 84 1018.0
20260902152605 84 310 0.0 5.0 0.00 0.02 0.01 85 1018.1
20260902152104 83 306 1.0 2.0 0.00 0.02 0.01 86 1018.1
20260902151605 83 253 0.0 0.0 0.00 0.02 0.01 87 1018.1
20260902150605 83 327 0.0 3.0 0.00 0.02 0.01 86 1018.0
20260902150109 84 106 0.0 3.0 0.00 0.02 0.01 86 1018.0
20260902145604 84 324 2.0 5.0 0.00 0.02 0.01 86 1018.1
20260902145104 84 298 1.0 3.0 0.00 0.02 0.01 87 1018.0
20260902143105 82 297 1.0 5.0 0.00 0.02 0.01 89 1018.0
20260902142605 82 314 1.0 3.0 0.00 0.02 0.01 89 1018.0
20260902142104 82 329 1.0 3.0 0.00 0.02 0.01 89 1017.9
20260902141604 82 335 1.0 3.0 0.00 0.02 0.01 90 1017.9
20260902141105 82 312 2.0 5.0 0.00 0.02 0.01 90 1017.9
20260902140604 81 320 1.0 3.0 0.00 0.02 0.01 91 1017.9
20260902140108 81 10 2.0 8.0 0.00 0.02 0.01 91 1017.9
20260902135605 81 311 2.0 3.0 0.00 0.02 0.01 91 1017.9
20260902135105 81 309 2.0 7.0 0.00 0.02 0.01 92 1017.9
20260902134604 80 317 3.0 6.0 0.00 0.02 0.01 93 1017.9
20260902134105 80 329 4.0 6.0 0.00 0.02 0.01 93 1017.9
20260902133604 79 316 3.0 5.0 0.00 0.02 0.01 94 1017.9
20260902132605 79 13 2.0 5.0 0.00 0.02 0.01 94 1018.0
20260902132104 78 147 2.0 3.0 0.00 0.02 0.01 94 1018.1
20260902131604 78 316 3.0 5.0 0.00 0.02 0.01 94 1018.0
20260902131105 78 320 2.0 5.0 0.00 0.02 0.01 95 1018.0
20260902130604 78 319 1.0 5.0 0.00 0.02 0.01 95 1018.0
20260902130109 78 315 2.0 6.0 0.00 0.02 0.01 95 1018.0
20260902125604 78 322 2.0 3.0 0.00 0.02 0.01 95 1018.0
20260902125104 78 329 1.0 3.0 0.00 0.02 0.01 95 1017.9
20260902124605 78 43 1.0 6.0 0.00 0.02 0.01 95 1018.0
20260902124104 78 326 2.0 5.0 0.00 0.02 0.01 95 1017.9
20260902123605 78 304 3.0 6.0 0.00 0.02 0.01 95 1017.9
20260902122605 77 327 1.0 3.0 0.00 0.02 0.01 95 1017.9
20260902122104 77 294 1.0 3.0 0.00 0.02 0.01 95 1017.9
20260902121605 77 332 3.0 6.0 0.00 0.02 0.01 95 1017.8
20260902120605 77 298 2.0 3.0 0.00 0.02 0.01 95 1017.7
20260902120108 77 327 2.0 3.0 0.00 0.02 0.01 95 1017.8
20260902115605 77 317 2.0 3.0 0.00 0.02 0.01 95 1017.8
20260902115104 77 310 1.0 6.0 0.00 0.02 0.01 95 1017.8
20260902114104 76 320 3.0 5.0 0.00 0.02 0.01 95 1017.6
20260902113605 76 320 2.0 3.0 0.00 0.02 0.01 95 1017.6
20260902113104 76 320 1.0 5.0 0.00 0.02 0.01 95 1017.6
20260902112604 76 324 3.0 5.0 0.00 0.02 0.01 95 1017.6
20260902111604 76 326 2.0 3.0 0.00 0.02 0.01 95 1017.4
20260902111105 76 328 2.0 3.0 0.00 0.02 0.01 95 1017.3
20260902110604 76 334 1.0 3.0 0.00 0.02 0.01 95 1017.2
20260902110108 76 331 2.0 5.0 0.00 0.02 0.01 95 1017.2
20260902105605 76 318 1.0 3.0 0.00 0.02 0.01 95 1017.1
20260902104604 76 318 1.0 3.0 0.00 0.02 0.01 95 1017.0
20260902104104 76 318 1.0 3.0 0.00 0.02 0.01 95 1017.0
20260902103604 76 334 1.0 3.0 0.00 0.02 0.01 95 1017.0
20260902103105 76 334 1.0 2.0 0.00 0.02 0.01 95 1017.0
20260902102604 76 335 2.0 3.0 0.00 0.02 0.01 95 1016.9
20260902102104 76 331 2.0 5.0 0.00 0.02 0.01 94 1017.0
20260902101605 76 315 1.0 3.0 0.00 0.02 0.01 94 1016.9
20260902100109 76 315 0.0 0.0 0.00 0.02 0.01 94 1017.0
20260902095104 76 315 0.0 0.0 0.00 0.02 0.01 94 1017.0
20260902094105 76 315 0.0 1.0 0.00 0.02 0.01 94 1016.9
20260902093604 76 315 1.0 2.0 0.00 0.02 0.01 94 1016.8
20260902093104 76 320 0.0 2.0 0.00 0.02 0.01 94 1016.7
20260902092604 76 320 1.0 2.0 0.00 0.02 0.01 94 1016.7
20260902092105 76 320 0.0 0.0 0.00 0.02 0.01 94 1016.8
20260902091104 76 320 1.0 2.0 0.00 0.02 0.01 94 1016.6
20260902090605 76 320 0.0 0.0 0.00 0.02 0.01 94 1016.5
20260902090108 76 320 0.0 0.0 0.00 0.02 0.01 94 1016.5
20260902085604 76 320 0.0 0.0 0.00 0.02 0.01 94 1016.4
20260902084604 76 320 0.0 1.0 0.00 0.02 0.01 94 1016.4
20260902084104 76 320 1.0 2.0 0.00 0.02 0.01 94 1016.5
20260902083604 76 320 0.0 1.0 0.00 0.02 0.01 94 1016.4
20260902083104 76 320 0.0 2.0 0.00 0.02 0.01 94 1016.4
20260902082603 76 320 0.0 3.0 0.00 0.02 0.01 94 1016.5
20260902082104 76 320 2.0 3.0 0.00 0.02 0.01 94 1016.4
20260902080604 76 335 0.0 1.0 0.00 0.02 0.01 94 1016.5
20260902080109 76 317 0.0 0.0 0.00 0.02 0.01 94 1016.5
20260902075604 76 315 0.0 0.0 0.00 0.02 0.01 94 1016.5
20260902075104 76 315 0.0 0.0 0.00 0.02 0.01 94 1016.5
20260902074604 76 315 0.0 0.0 0.00 0.02 0.01 94 1016.6
20260902074104 76 315 0.0 0.0 0.00 0.02 0.01 94 1016.4
20260902073603 76 315 0.0 0.0 0.00 0.02 0.01 94 1016.4
20260902073104 76 316 0.0 0.0 0.00 0.02 0.01 94 1016.4
20260902072604 76 316 0.0 0.0 0.00 0.02 0.01 94 1016.6
20260902071604 76 306 0.0 0.0 0.00 0.02 0.01 94 1016.6
20260902070604 76 324 0.0 0.0 0.00 0.02 0.01 94 1016.7
20260902065104 76 323 0.0 0.0 0.00 0.02 0.01 94 1016.9
20260902064604 76 323 0.0 0.0 0.00 0.02 0.01 94 1016.9
20260902064104 76 314 0.0 0.0 0.01 0.02 0.01 94 1016.9
20260902063604 76 314 0.0 0.0 0.01 0.02 0.01 94 1016.9
20260902063104 76 314 0.0 0.0 0.01 0.02 0.01 94 1016.9
20260902062604 76 314 0.0 0.0 0.01 0.02 0.01 94 1016.9
20260902062105 76 314 0.0 0.0 0.01 0.02 0.01 94 1017.0
20260902060604 76 314 0.0 0.0 0.01 0.02 0.01 94 1017.1
20260902060108 76 314 0.0 0.0 0.01 0.02 0.01 94 1017.1
20260902055604 76 314 0.0 0.0 0.01 0.02 0.01 94 1017.1
20260902055104 76 314 0.0 0.0 0.01 0.02 0.01 94 1017.2
20260902054604 76 314 0.0 0.0 0.01 0.02 0.01 94 1017.2
20260902054104 76 314 0.0 0.0 0.00 0.01 0.00 94 1017.3
20260902053604 76 313 0.0 0.0 0.00 0.01 0.00 94 1017.2
20260902053104 76 313 0.0 0.0 0.00 0.01 0.00 94 1017.2
20260902052604 76 313 0.0 0.0 0.00 0.01 0.00 94 1017.3
20260902052104 76 313 0.0 0.0 0.00 0.01 0.00 94 1017.3
20260902051604 76 313 0.0 0.0 0.00 0.01 0.00 94 1017.2
20260902051104 76 313 0.0 0.0 0.00 0.01 0.00 94 1017.3
20260902050603 76 313 0.0 9.0 0.00 0.01 0.00 94 1017.4
20260902050108 76 313 0.0 0.0 0.00 0.01 0.00 94 1017.4
20260902045603 76 313 0.0 0.0 0.00 0.01 0.00 94 1017.4
20260902044604 76 313 0.0 0.0 0.00 0.01 0.00 94 1017.3
20260902044106 76 313 0.0 0.0 0.00 0.01 0.00 94 1017.3
20260902043606 76 313 0.0 0.0 0.00 0.01 0.00 94 1017.4
20260902043106 77 313 0.0 0.0 0.00 0.01 0.00 94 1017.4
20260902042105 77 313 0.0 0.0 0.00 0.01 0.00 94 1017.5
20260902041606 77 313 0.0 0.0 0.00 0.01 0.00 93 1017.6
20260902041106 77 313 0.0 0.0 0.00 0.01 0.00 93 1017.6
20260902040110 77 313 0.0 0.0 0.00 0.01 0.00 93 1017.7
20260902035606 77 313 0.0 0.0 0.00 0.01 0.01 93 1017.7
20260902035105 77 313 0.0 0.0 0.00 0.01 0.01 93 1017.7
20260902034606 77 313 0.0 0.0 0.00 0.01 0.01 93 1017.7
20260902034105 77 313 0.0 0.0 0.00 0.01 0.01 93 1017.8
20260902033105 77 313 0.0 0.0 0.00 0.01 0.01 93 1018.0
20260902031606 77 313 0.0 0.0 0.00 0.01 0.01 93 1018.0
20260902031106 77 313 0.0 0.0 0.00 0.01 0.01 93 1018.0
20260902030605 77 313 0.0 0.0 0.00 0.01 0.01 93 1018.1
20260902030110 77 313 0.0 0.0 0.00 0.01 0.01 93 1018.1
20260902025605 77 313 0.0 0.0 0.00 0.01 0.01 93 1018.1
20260902025106 77 313 0.0 0.0 0.00 0.01 0.01 93 1018.1
20260902024606 77 313 0.0 0.0 0.00 0.01 0.01 93 1018.1
20260902024106 77 313 0.0 0.0 0.00 0.01 0.01 93 1018.1
20260902023606 77 313 0.0 0.0 0.00 0.01 0.01 92 1018.1
20260902023106 77 313 0.0 0.0 0.00 0.01 0.01 92 1018.0
20260902022105 77 313 0.0 0.0 0.00 0.01 0.01 92 1017.9
20260902021605 77 313 0.0 0.0 0.00 0.01 0.01 92 1017.9
20260902021106 77 313 0.0 0.0 0.00 0.01 0.01 92 1017.9
20260902020606 77 313 0.0 0.0 0.00 0.01 0.01 92 1017.8
20260902020109 77 313 0.0 0.0 0.00 0.01 0.01 92 1017.8
20260902015606 77 313 0.0 0.0 0.00 0.01 0.01 92 1017.8
20260902015105 78 313 0.0 0.0 0.00 0.01 0.01 92 1017.8
20260902014605 78 313 0.0 0.0 0.00 0.01 0.01 92 1017.7
20260902014106 78 313 0.0 0.0 0.00 0.01 0.01 92 1017.6
20260902013605 78 313 0.0 0.0 0.00 0.01 0.01 91 1017.6
20260902013106 78 313 0.0 0.0 0.01 0.01 0.01 91 1017.4
20260902012105 78 313 0.0 0.0 0.01 0.01 0.01 91 1017.4
20260902011606 78 313 0.0 0.0 0.01 0.01 0.01 91 1017.4
20260902010606 78 334 0.0 0.0 0.01 0.01 0.01 91 1017.5
20260902010109 78 334 0.0 0.0 0.01 0.01 0.01 91 1017.4
20260902005605 78 334 0.0 0.0 0.01 0.01 0.01 91 1017.5
20260902005106 79 334 0.0 0.0 0.01 0.01 0.01 91 1017.5
20260902004605 79 334 0.0 0.0 0.01 0.01 0.01 91 1017.5
20260902004106 79 335 0.0 0.0 0.01 0.01 0.01 91 1017.5